AirNav   ProFlight Series 2 Aviation Headset
 
 1000 users online  

4PA4 UPMC Susquehanna Lock Haven Heliport
Lock Haven, Pennsylvania, USA

GOING TO LOCK HAVEN?


FAA INFORMATION EFFECTIVE 18 JUNE 2020

Location

FAA Identifier: 4PA4
Lat/Long: 41-07-55.0000N 077-28-15.0000W
41-07.916667N 077-28.250000W
41.1319444,-77.4708333
(estimated)
Elevation: 720 ft. / 219 m (estimated)
Variation: 11W (2000)
Time zone: UTC -4 (UTC -5 during Standard Time)
Zip code: 17745

Heliport Operations

Heliport use: Private use. Permission required prior to landing
Activation date: 04/1973
Control tower: no
ARTCC: NEW YORK CENTER
FSS: WILLIAMSPORT FLIGHT SERVICE STATION
NOTAMs facility: FDC (NOTAM-D service not available)
Attendance: CONTINUOUS
Wind indicator: yes
Segmented circle: no

Heliport Communications

  • APCH/DEP SVC PRVDD BY NEW YORK ARTCC (ZNY) ON 134.8/338.3 (PHILLIPSBURG RCAG).

Nearby radio navigation aids

VOR radial/distance  VOR name  Freq  Var
PSBr071/26.9PHILIPSBURG VORTAC115.5010W
ETGr109/30.8KEATING VORTAC116.0010W
SLTr143/32.1SLATE RUN VORTAC113.9008W
SEGr316/33.6SELINSGROVE VOR/DME110.4008W
FQMr257/33.8WILLIAMSPORT VOR/DME114.4009W
SFKr192/33.9STONYFORK VOR/DME108.6008W
MIPr289/37.0MILTON VORTAC109.2009W

Heliport Services

Airframe service: NONE
Powerplant service: NONE

Runway Information

Helipad H1

Dimensions: 70 x 70 ft. / 21 x 21 m
Surface: asphalt, in excellent condition
Operational restrictions: INGRESS/EGRESS 110/280, 270/090.
Latitude: 41-07.916667N
Longitude: 077-28.250000W
Elevation: 720.0 ft.
Traffic pattern: leftleft
Markings: basic, in fair condition
Obstructions: tower, marked and lighted
BLDG AND RADIO TWR.

Heliport Ownership and Management from official FAA records

Ownership: Privately-owned
Owner: UPMC LOCK HAVEN
24 CREE DRIVE
LOCK HAVEN, PA 17745
Phone (570) 321-1000
Manager: TERRY AUSTIN
700 HIGH STREET
WILLIAMSPORT, PA 17701
Phone (570) 321-2222

Additional Remarks

FOR CD CTC NEW YORK ARTCC AT 631-468-1425.

Instrument Procedures

There are no published instrument procedures at 4PA4.

Some nearby airports with instrument procedures:

KLHV - William T Piper Memorial Airport (2 nm E)
N96 - Bellefonte Airport (22 nm SW)
KUNV - University Park Airport (24 nm SW)
KIPT - Williamsport Regional Airport (26 nm E)
KRVL - Mifflin County Airport (28 nm S)
 
Loc | Ops | Rwys | IFR | FBO | Links
Com | Nav | Svcs | Stats | Notes
Area around 4PA4 (UPMC Susquehanna Lock Haven Heliport)
 
Road maps at: MapQuest Bing Google
 
Aerial photo
No photo
 
Sectional chart

 
Airport distance calculator
Flying to UPMC Susquehanna Lock Haven Heliport? Find the distance to fly.

From to 4PA4

Sunrise and sunset
Times for 02-Jul-2020
 Local
(UTC-4)
 Zulu
(UTC)
Morning civil twilight05:1009:10
Sunrise05:4309:43
Sunset20:4500:45
Evening civil twilight21:1901:19

Current date and time
Zulu (UTC)  02-Jul-2020 23:38:39
Local (UTC-4)  02-Jul-2020 19:38:39
 
METAR
KUNV 
24nm SW 
022253Z 34008KT 10SM SCT100 30/15 A2992
KIPT 
26nm E 
022254Z 28006KT 10SM FEW100 32/15 A2983 RMK AO2 SLP097 T03220150 $
KRVL 
28nm S 
022315Z AUTO 00000KT 10SM CLR 30/18 A2988 RMK AO2
KSEG 
33nm SE 
022253Z AUTO 31003KT 10SM FEW120 32/17 A2985 RMK AO2 SLP102 T03220167
KN38 
36nm N 
022315Z AUTO 31008KT 10SM CLR 28/15 A2995 RMK AO2
KFIG 
43nm W 
022254Z AUTO 33005KT 10SM CLR 30/14 A2995 RMK AO2 SLP133 T03000144
TAF
KUNV 
24nm SW 
022116Z 0221/0318 34006KT P6SM SCT070 FM030100 00000KT P6SM SKC FM031500 30007KT P6SM SCT040
KIPT 
26nm E 
022116Z 0221/0318 30006KT P6SM SCT080 FM030100 00000KT P6SM SKC FM031500 31006KT P6SM SCT050
NOTAMs
Click for the latest NOTAMs
NOTAMs are issued by the DoD/FAA and will open in a separate window not controlled by AirNav.

 

 
 

Would you like to see your business listed on this page?

 If your business provides an interesting product or service to pilots, flight crews, aircraft, or users of the UPMC Susquehanna Lock Haven Heliport, you should consider listing it here.  To start the listing process, click on the button below
 
Add a business
 

Other Pages about UPMC Susquehanna Lock Haven Heliport

Update a link
 
Copyright © AirNav, LLC. All rights reserved. Privacy Policy  Contact